Wind_Speed
52 51 50 50 53 55 54 52 52 52 51 51 51 51 51 52 50 50 47 43 40 37 34 31 28 26 23 22 20 19 17 16 16 15 13 12 11 10 8 7 6 5 4 4 3 3 3 3 3
52 51 51 52 54 57 54 52 53 52 52 52 53 52 53 53 52 50 48 45 42 39 36 33 31 28 26 24 22 20 19 18 17 16 14 13 12 11 10 9 7 6 5 5 4 4 4 4 4
52 51 52 54 56 56 54 53 53 53 53 53 53 54 55 55 53 51 49 47 44 41 39 36 33 30 28 26 24 22 21 20 19 18 16 15 14 12 11 10 9 7 7 6 5 5 5 5 5
51 52 54 56 56 54 54 54 55 53 54 54 55 56 56 55 54 52 50 48 46 44 41 38 35 32 30 28 26 24 23 22 21 19 18 17 16 14 13 12 10 9 8 7 7 6 6 6 5
51 52 54 56 55 53 54 54 54 53 54 55 57 57 57 56 55 53 52 50 48 46 44 41 37 35 32 30 28 26 25 23 22 21 20 19 17 16 15 13 12 11 10 9 8 7 7 7 7
49 52 54 55 54 52 54 53 54 54 54 56 58 58 58 57 56 55 54 53 50 48 46 43 40 38 35 33 30 29 27 25 24 23 22 20 19 18 16 15 14 13 12 11 10 9 9 8 8
48 49 52 54 52 51 51 52 54 54 53 55 58 59 59 59 58 56 55 54 52 49 48 45 43 40 37 35 33 31 29 28 26 25 23 22 21 19 18 17 15 14 13 12 11 11 10 10 10
46 48 50 51 50 50 49 51 53 54 55 54 57 59 59 59 58 57 57 56 55 51 49 48 45 42 40 37 35 33 32 30 28 27 26 24 23 21 20 19 17 16 15 14 13 13 12 12 12
44 46 46 45 47 47 47 48 51 53 55 57 58 59 60 59 60 57 56 55 55 53 50 49 47 45 42 40 37 35 34 32 31 29 28 26 25 24 22 21 20 18 17 16 15 15 14 14 14
41 43 41 41 43 45 46 47 48 50 55 56 58 58 60 60 60 58 56 56 55 55 53 50 48 47 45 42 40 38 36 34 32 31 30 28 27 25 24 23 21 20 19 18 18 17 16 16 16
38 38 38 40 41 41 43 46 47 49 52 55 57 56 58 60 60 60 56 58 57 56 55 52 50 48 46 44 42 40 38 36 34 33 32 30 28 27 26 24 23 22 21 20 20 19 19 18 18
34 35 36 39 40 40 39 42 45 48 50 52 55 56 57 57 59 63 59 56 57 56 53 52 52 50 48 46 44 42 40 38 36 34 33 31 30 29 27 26 25 24 23 22 21 21 21 20 20
30 31 33 35 36 36 39 40 41 44 47 51 53 54 54 56 55 59 61 58 56 56 52 52 52 52 48 47 46 44 42 40 38 36 35 33 32 30 29 28 27 26 25 24 23 23 23 23 22
24 24 28 30 30 32 36 38 39 41 44 49 52 52 52 54 54 55 57 58 56 53 52 52 52 51 50 47 46 45 43 42 40 38 37 35 34 32 31 30 29 28 27 26 25 25 25 25 25
18 20 23 25 27 29 33 36 36 38 42 46 50 51 51 52 53 52 52 53 52 52 52 52 52 51 51 49 47 46 44 42 41 39 38 37 35 34 33 32 31 30 29 28 28 27 27 27 27
14 16 20 22 26 28 31 33 36 38 41 44 48 49 49 49 50 51 50 48 49 50 49 50 51 51 50 49 48 47 46 43 41 40 39 38 37 35 34 33 32 32 31 31 30 29 29 29 29
11 14 17 20 22 26 29 30 36 38 40 41 45 48 47 46 46 48 47 45 45 46 47 49 49 50 49 48 48 47 47 45 43 41 41 39 37 36 36 35 34 34 33 33 33 32 32 32 32
9 13 14 17 19 23 25 27 32 36 39 40 42 44 45 44 44 45 44 43 43 43 44 46 47 48 48 48 48 48 48 46 44 42 41 39 38 37 37 37 37 36 36 35 35 35 35 34 34
7 9 10 12 17 21 24 25 28 32 36 37 40 41 43 43 42 42 41 40 40 40 39 41 43 45 47 48 47 47 48 46 45 44 43 41 40 39 38 37 37 38 38 37 37 37 37 36 36
4 6 7 11 15 18 21 23 25 29 33 35 37 39 40 42 41 39 38 36 37 36 35 36 38 43 45 46 45 45 46 46 45 44 44 43 42 41 40 40 39 39 39 39 39 39 38 38 38
3 5 7 10 13 17 18 19 22 28 31 32 33 36 39 40 38 37 35 36 36 33 32 33 36 38 41 44 44 43 45 46 46 45 44 44 44 43 43 42 41 41 41 41 40 40 39 38 38
6 6 8 9 11 13 15 15 19 24 27 28 29 33 37 37 36 35 33 34 33 31 31 32 34 35 38 41 44 43 44 45 45 45 45 45 45 44 43 43 42 41 41 41 41 41 40 39 39
9 9 8 10 11 11 12 13 16 21 24 25 27 28 32 34 34 34 33 31 32 30 31 32 34 35 36 40 42 43 44 44 45 45 45 45 45 44 44 43 43 43 43 42 42 41 41 40 41
10 10 10 11 10 10 11 11 14 17 18 21 23 25 28 30 30 30 30 30 30 29 30 30 32 35 36 37 40 41 42 42 43 43 44 44 45 44 44 44 43 43 42 41 41 41 42 41 41
10 11 10 10 11 11 11 11 13 14 16 17 19 22 26 29 29 28 27 27 29 30 29 30 31 34 35 35 37 41 42 41 41 42 42 43 44 43 43 43 44 43 43 42 42 41 40 40 40
11 11 11 12 12 12 11 10 11 11 13 15 17 19 21 24 25 26 26 25 27 28 28 29 30 32 33 34 36 38 40 41 41 41 42 42 42 43 44 44 43 43 43 42 41 40 40 40 40
11 11 11 11 12 11 10 10 10 11 11 12 14 16 18 21 23 24 25 26 27 28 28 28 29 31 32 32 33 36 37 38 39 39 40 41 43 44 45 44 43 42 41 40 40 40 41 41 42
10 11 10 11 12 12 11 10 10 10 11 12 12 13 15 17 18 20 22 24 26 28 28 29 29 30 32 33 34 35 36 37 37 38 38 38 38 39 41 42 42 41 41 41 42 42 42 42 43
11 11 10 10 11 12 11 9 9 9 9 10 13 13 14 16 17 18 20 22 24 27 28 29 30 31 32 34 36 37 37 37 37 38 38 39 39 39 40 40 41 42 43 42 42 43 42 42 43
11 12 11 11 11 11 11 10 9 8 8 8 10 12 14 15 16 18 19 21 23 25 27 29 30 32 34 35 37 38 39 39 40 40 41 41 42 41 42 42 42 42 43 43 43 42 42 42 43
Wind_Direction
266 264 262 260 257 256 255 255 252 248 245 241 237 233 230 228 227 226 225 225 225 225 225 225 226 227 227 226 225 224 225 226 226 226 227 228 230 230 234 239 243 249 254 261 268 271 271 273 275
265 262 259 257 255 256 256 254 252 249 244 240 236 232 229 228 226 225 224 224 224 224 224 225 225 226 226 226 226 225 225 226 226 226 227 229 230 231 234 239 242 246 251 258 264 267 269 270 271
263 260 257 256 255 255 255 254 251 248 243 237 233 230 228 226 225 224 224 223 223 223 223 224 225 225 225 226 226 226 225 226 226 227 227 229 231 232 234 237 239 243 248 254 259 262 265 266 267
261 259 255 254 254 254 252 251 250 246 240 235 231 229 227 225 224 223 223 223 223 223 222 223 224 224 224 225 226 226 226 226 226 227 228 230 232 233 234 237 239 241 245 250 255 258 261 262 264
260 257 255 253 253 253 250 247 246 243 237 233 229 227 225 223 223 222 222 222 222 222 222 222 223 223 224 224 225 226 226 227 227 228 230 231 233 234 236 237 239 241 243 246 250 254 257 258 261
259 257 254 254 253 252 249 245 241 239 235 230 227 225 223 222 222 221 220 221 221 221 222 223 223 223 224 224 225 225 226 227 227 228 230 232 233 234 236 237 239 241 244 245 247 252 255 257 259
259 258 255 253 252 250 248 243 239 236 233 228 226 224 222 221 221 220 219 220 220 220 221 222 223 223 224 224 224 225 226 227 228 229 230 232 233 234 236 238 239 243 245 247 248 251 254 257 259
260 259 256 253 251 249 245 241 237 233 231 228 225 223 219 218 218 217 218 219 218 218 219 221 222 223 223 223 224 225 226 227 228 229 230 232 233 234 236 238 240 242 245 247 249 251 253 256 259
259 258 256 252 249 245 241 238 235 232 229 225 222 220 217 216 216 215 216 216 216 218 219 219 221 222 222 223 224 225 227 228 229 230 231 232 233 235 236 238 240 242 244 246 248 250 253 255 258
259 259 255 249 246 243 239 237 233 229 227 224 220 218 216 216 216 214 215 215 215 218 218 218 219 221 222 223 224 225 227 228 229 230 231 232 233 235 236 238 240 242 244 246 248 251 253 256 258
259 258 252 245 242 240 237 234 231 227 224 221 218 215 215 216 216 214 213 214 213 215 217 218 218 219 221 222 223 224 226 228 229 230 231 232 234 235 236 238 240 242 245 246 249 251 254 256 258
260 258 250 243 240 238 234 230 228 225 220 218 215 213 214 215 216 214 212 212 212 213 215 216 216 217 220 221 222 223 225 227 228 230 231 232 234 235 237 239 241 243 245 247 249 252 254 256 258
262 258 248 240 237 234 231 227 224 221 217 216 214 213 213 212 214 215 213 211 212 213 215 215 216 216 218 220 222 223 224 226 228 229 230 233 234 235 237 239 242 244 246 248 250 252 255 257 258
261 252 241 234 233 230 227 223 220 217 214 212 211 210 210 211 212 213 214 213 212 212 215 216 216 215 217 218 220 223 224 226 229 230 231 233 234 236 238 240 242 245 247 249 251 253 256 258 259
255 246 235 228 227 226 224 221 216 211 210 210 208 209 208 210 213 214 215 216 215 213 215 214 214 215 216 217 219 222 223 225 229 231 232 233 234 237 239 241 243 245 248 250 252 254 256 258 260
250 245 234 225 222 219 221 219 212 209 208 208 207 208 209 212 213 215 216 217 215 215 217 214 214 216 216 217 219 221 222 224 228 230 231 232 234 237 240 242 245 247 248 251 253 254 256 259 260
245 243 233 224 218 214 217 214 209 207 205 205 206 208 208 210 212 213 215 217 217 216 217 214 215 215 217 218 220 221 222 224 227 230 232 234 237 239 242 244 247 249 250 252 254 255 257 258 261
249 244 232 225 218 210 211 209 207 205 204 204 205 207 209 209 212 212 213 215 216 214 215 214 215 217 218 219 222 222 223 224 227 230 232 234 237 240 243 245 248 250 252 253 255 256 258 260 262
248 233 226 222 214 208 205 205 205 203 204 204 204 205 208 209 209 211 213 214 214 214 214 215 219 221 222 221 223 225 226 227 229 231 232 234 237 240 242 245 247 250 252 253 255 257 259 261 263
247 215 212 203 205 204 200 202 201 203 205 206 206 206 207 208 209 211 213 214 212 213 216 218 220 223 223 224 225 227 228 229 231 233 234 236 239 241 242 245 249 251 252 254 256 257 260 263 265
169 183 178 177 188 189 194 199 199 202 204 207 208 208 209 209 210 212 215 218 217 219 221 223 222 225 226 226 228 230 231 232 233 234 236 238 241 243 244 247 250 251 253 255 257 259 261 262 265
125 138 159 165 177 187 194 198 195 199 203 207 210 211 211 213 213 213 216 220 221 224 222 223 223 224 227 229 230 230 232 233 234 237 240 242 243 244 245 248 250 251 253 256 257 259 262 264 266
113 119 133 150 165 175 183 184 189 198 200 207 211 212 213 214 215 217 219 222 224 225 225 226 225 226 229 231 232 234 236 237 237 239 241 243 245 247 248 250 251 252 254 256 256 259 262 265 267
115 112 126 142 157 167 173 178 188 190 197 205 209 214 217 217 216 218 222 226 228 230 233 231 229 231 235 235 235 237 238 239 241 242 244 245 247 250 252 254 254 255 255 256 257 261 264 266 267
119 116 123 133 148 158 165 174 184 191 195 202 210 217 218 221 221 221 224 227 230 234 237 236 235 237 237 239 240 238 239 241 243 245 246 247 249 250 251 253 254 254 254 257 260 263 264 266 268
121 118 123 129 136 149 156 164 170 178 189 201 207 213 220 222 223 225 228 231 233 237 241 241 241 241 241 242 243 242 243 244 246 248 249 250 251 251 253 254 254 257 258 260 261 263 264 267 270
120 125 125 128 129 138 146 153 161 170 179 195 207 214 223 227 229 234 237 238 238 241 243 247 248 247 247 247 247 246 248 249 250 251 251 253 254 254 254 255 257 258 257 260 263 265 268 270 272
126 127 130 129 130 137 147 155 165 169 182 194 205 215 223 229 233 237 238 239 243 245 247 250 252 253 253 254 253 253 255 253 254 254 254 254 255 255 256 257 258 257 259 261 264 267 269 271 272
135 134 132 129 133 140 145 152 162 173 181 192 203 213 224 228 234 239 241 242 246 249 251 253 256 257 257 258 258 258 258 258 258 257 258 258 258 258 258 258 258 258 261 264 266 268 269 270 271
137 135 134 135 139 143 147 157 166 178 188 199 213 222 230 234 238 242 245 248 250 253 255 257 259 261 262 263 262 263 262 261 260 260 261 261 260 259 259 260 261 262 263 265 267 268 268 269 271
Height
5772 5774 5775 5776 5776 5776 5779 5786 5790 5795 5800 5805 5810 5815 5821 5826 5832 5838 5843 5846 5850 5854 5857 5860 5863 5865 5867 5869 5870 5871 5873 5874 5875 5875 5876 5877 5877 5877 5878 5878 5878 5878 5878 5878 5877 5877 5877 5877 5877
5760 5762 5762 5762 5762 5763 5769 5776 5779 5784 5790 5795 5800 5806 5812 5817 5823 5829 5835 5840 5844 5848 5852 5856 5859 5861 5864 5866 5867 5869 5870 5871 5872 5873 5874 5875 5875 5876 5876 5876 5877 5877 5877 5876 5876 5876 5876 5876 5876
5747 5748 5749 5748 5748 5752 5760 5765 5769 5773 5779 5785 5790 5796 5802 5809 5816 5822 5828 5833 5838 5842 5846 5850 5854 5857 5859 5862 5864 5866 5867 5868 5870 5871 5872 5872 5873 5874 5874 5875 5875 5875 5875 5875 5875 5875 5875 5875 5875
5734 5734 5734 5735 5736 5743 5749 5754 5756 5761 5767 5773 5780 5785 5793 5801 5808 5815 5821 5827 5832 5837 5841 5845 5849 5852 5855 5858 5860 5862 5864 5865 5867 5868 5869 5870 5871 5872 5872 5873 5873 5873 5873 5874 5874 5874 5874 5874 5873
5719 5720 5720 5720 5726 5731 5737 5742 5744 5749 5756 5763 5769 5776 5784 5792 5799 5807 5813 5820 5825 5830 5835 5839 5843 5847 5850 5853 5856 5858 5860 5862 5863 5865 5866 5867 5868 5869 5870 5870 5871 5871 5871 5872 5872 5872 5872 5872 5872
5705 5706 5707 5709 5714 5719 5724 5729 5733 5738 5745 5752 5758 5766 5775 5783 5790 5798 5805 5812 5818 5824 5829 5833 5838 5842 5845 5848 5851 5854 5856 5858 5860 5861 5863 5864 5865 5866 5867 5868 5868 5869 5869 5869 5870 5870 5870 5870 5870
5693 5693 5695 5699 5703 5707 5712 5716 5721 5727 5734 5742 5748 5756 5765 5774 5782 5789 5796 5803 5810 5816 5822 5827 5831 5835 5839 5843 5846 5849 5851 5853 5856 5857 5859 5861 5862 5863 5864 5865 5866 5866 5867 5867 5867 5867 5868 5868 5868
5680 5682 5683 5687 5690 5696 5701 5704 5710 5716 5724 5732 5737 5746 5756 5764 5773 5781 5788 5795 5802 5808 5814 5820 5825 5829 5834 5837 5841 5844 5846 5849 5851 5853 5855 5857 5858 5859 5861 5862 5863 5863 5864 5864 5865 5865 5865 5865 5866
5668 5670 5672 5676 5679 5685 5689 5693 5699 5705 5713 5719 5727 5736 5746 5754 5763 5771 5779 5786 5793 5800 5806 5812 5818 5823 5827 5831 5835 5838 5841 5844 5846 5849 5851 5852 5854 5856 5857 5858 5859 5860 5861 5861 5862 5862 5862 5862 5863
5657 5659 5663 5666 5669 5674 5678 5682 5689 5694 5701 5709 5717 5727 5736 5745 5753 5762 5770 5778 5785 5792 5798 5804 5811 5816 5821 5825 5829 5832 5836 5839 5842 5844 5846 5848 5850 5851 5853 5854 5855 5856 5857 5858 5858 5859 5859 5859 5860
5647 5650 5653 5655 5658 5663 5667 5672 5678 5684 5692 5700 5708 5719 5728 5737 5744 5753 5761 5769 5776 5783 5789 5796 5803 5808 5814 5818 5823 5827 5830 5833 5836 5839 5841 5843 5845 5847 5848 5850 5851 5852 5853 5854 5854 5855 5855 5856 5856
5639 5640 5642 5645 5648 5652 5657 5662 5668 5675 5684 5692 5700 5710 5719 5728 5736 5745 5752 5760 5767 5774 5781 5787 5794 5800 5806 5811 5816 5820 5824 5827 5831 5833 5836 5838 5840 5842 5844 5845 5846 5847 5849 5850 5850 5851 5851 5851 5852
5630 5631 5632 5635 5639 5643 5648 5653 5660 5667 5675 5683 5692 5702 5711 5720 5727 5735 5743 5752 5759 5766 5773 5779 5785 5793 5798 5804 5809 5813 5817 5821 5824 5827 5830 5833 5835 5837 5839 5840 5842 5843 5844 5845 5845 5846 5847 5847 5847
5624 5624 5625 5628 5632 5636 5641 5646 5652 5661 5668 5676 5685 5695 5704 5712 5719 5727 5735 5743 5751 5759 5766 5772 5778 5785 5791 5796 5802 5806 5811 5814 5818 5821 5824 5827 5829 5831 5833 5835 5837 5838 5839 5840 5841 5841 5842 5842 5843
5619 5620 5621 5623 5626 5630 5635 5640 5647 5655 5662 5670 5679 5689 5698 5706 5713 5721 5729 5737 5744 5751 5758 5764 5770 5776 5783 5789 5794 5799 5803 5808 5812 5815 5818 5821 5823 5826 5828 5830 5831 5833 5834 5835 5835 5836 5836 5837 5837
5615 5616 5618 5621 5623 5626 5631 5637 5644 5649 5657 5665 5674 5683 5692 5700 5707 5715 5723 5730 5737 5744 5751 5757 5762 5769 5775 5781 5786 5791 5796 5801 5805 5808 5811 5814 5817 5819 5822 5824 5825 5827 5828 5829 5830 5830 5831 5831 5832
5613 5614 5615 5617 5619 5623 5627 5633 5639 5645 5652 5660 5669 5678 5686 5695 5702 5710 5718 5725 5732 5738 5745 5750 5756 5763 5769 5774 5779 5784 5789 5793 5797 5801 5805 5807 5810 5813 5815 5818 5819 5821 5822 5823 5824 5824 5825 5825 5826
5612 5611 5612 5614 5616 5621 5625 5630 5636 5642 5649 5657 5665 5673 5682 5690 5698 5705 5713 5720 5727 5733 5739 5745 5751 5757 5762 5767 5773 5777 5782 5786 5790 5794 5797 5800 5803 5806 5808 5810 5812 5814 5816 5817 5817 5818 5818 5819 5819
5610 5610 5611 5613 5615 5619 5624 5629 5635 5641 5647 5654 5662 5670 5678 5686 5694 5701 5709 5716 5722 5729 5735 5740 5746 5751 5756 5761 5766 5771 5775 5779 5783 5787 5790 5793 5796 5798 5801 5803 5805 5807 5808 5809 5810 5810 5811 5811 5812
5609 5610 5611 5613 5616 5620 5625 5630 5635 5640 5647 5653 5660 5667 5675 5683 5690 5697 5704 5711 5718 5724 5730 5735 5740 5745 5750 5756 5760 5765 5768 5772 5776 5779 5782 5785 5788 5791 5793 5795 5797 5798 5800 5801 5802 5803 5803 5804 5804
5610 5611 5613 5615 5617 5621 5626 5630 5635 5640 5646 5652 5658 5665 5672 5679 5686 5694 5700 5707 5713 5719 5725 5729 5735 5740 5745 5749 5753 5757 5762 5765 5769 5772 5775 5778 5780 5783 5785 5787 5789 5790 5792 5793 5794 5795 5795 5796 5796
5612 5613 5614 5616 5620 5623 5628 5631 5636 5640 5646 5652 5657 5663 5669 5677 5683 5690 5697 5702 5709 5714 5720 5725 5730 5734 5739 5743 5747 5751 5755 5758 5762 5765 5767 5770 5772 5775 5777 5779 5781 5782 5783 5785 5786 5786 5787 5788 5788
5615 5615 5617 5619 5622 5626 5629 5632 5637 5640 5646 5652 5657 5662 5667 5674 5681 5687 5694 5699 5705 5710 5715 5719 5724 5728 5733 5737 5741 5745 5748 5751 5754 5757 5759 5761 5764 5766 5768 5770 5772 5774 5775 5776 5777 5778 5778 5779 5779
5617 5619 5620 5622 5625 5628 5631 5634 5638 5641 5646 5651 5656 5661 5666 5672 5678 5685 5690 5695 5700 5705 5709 5713 5718 5722 5726 5730 5734 5737 5741 5744 5746 5748 5751 5753 5756 5758 5760 5762 5764 5765 5766 5767 5768 5769 5769 5770 5770
5621 5622 5624 5626 5628 5630 5632 5636 5639 5642 5646 5651 5656 5661 5665 5671 5677 5682 5687 5692 5696 5700 5704 5708 5712 5715 5719 5723 5726 5729 5733 5736 5738 5740 5743 5745 5747 5749 5751 5753 5754 5756 5757 5758 5759 5759 5760 5760 5760
5622 5625 5627 5629 5630 5632 5634 5637 5641 5644 5647 5651 5656 5660 5665 5670 5675 5680 5684 5688 5692 5695 5699 5703 5706 5709 5712 5715 5718 5721 5725 5727 5730 5732 5734 5736 5738 5740 5741 5743 5745 5746 5747 5748 5748 5749 5750 5750 5750
5625 5626 5629 5631 5632 5634 5637 5640 5642 5645 5648 5652 5656 5660 5664 5669 5673 5677 5681 5685 5688 5691 5695 5697 5700 5703 5705 5708 5711 5714 5716 5719 5721 5722 5724 5726 5728 5730 5731 5733 5734 5735 5737 5738 5738 5739 5740 5740 5740
5628 5629 5631 5633 5634 5636 5639 5641 5644 5647 5650 5653 5657 5660 5664 5667 5671 5675 5678 5681 5684 5687 5690 5692 5695 5697 5699 5701 5703 5705 5707 5709 5712 5713 5714 5716 5717 5719 5721 5722 5723 5725 5726 5727 5728 5728 5729 5729 5729
5629 5631 5632 5634 5636 5638 5640 5645 5645 5647 5650 5653 5656 5660 5663 5666 5669 5672 5675 5677 5680 5682 5684 5686 5688 5690 5691 5693 5695 5697 5698 5700 5701 5703 5704 5706 5707 5709 5710 5711 5713 5714 5715 5716 5717 5717 5717 5718 5718
5630 5632 5634 5636 5637 5639 5642 5647 5645 5648 5650 5653 5655 5659 5662 5664 5666 5668 5671 5673 5675 5677 5678 5680 5681 5682 5683 5684 5686 5687 5688 5689 5691 5692 5693 5695 5696 5697 5699 5700 5702 5703 5704 5704 5705 5705 5705 5706 5706